Previsão horária em Abishevo

Hoje, 10 Abril, Sábado

Tempo Temperatura Precipitação Vento Pressão Humidade
00:00 +4°C° 0 mm 1 m/s 758 mmHg 93%
01:00 +3°C° 0 mm 2 m/s 758 mmHg 92%
02:00 +3°C° 0 mm 1 m/s 758 mmHg 92%
03:00 +3°C° 0 mm 1 m/s 758 mmHg 93%
04:00 +2°C° 0 mm 1 m/s 759 mmHg 96%
05:00 +2°C° 0 mm 1 m/s 759 mmHg 95%
06:00 +3°C° 0 mm 1 m/s 759 mmHg 95%
07:00 +3°C° 0 mm 1 m/s 760 mmHg 95%
08:00 +4°C° 0 mm 1 m/s 760 mmHg 96%
09:00 +4°C° 0 mm 1 m/s 760 mmHg 96%
10:00 +4°C° 0 mm 2 m/s 760 mmHg 97%
11:00 +6°C° 0 mm 2 m/s 760 mmHg 95%
12:00 +7°C° 0 mm 3 m/s 760 mmHg 94%
13:00 +8°C° 0 mm 3 m/s 760 mmHg 92%
14:00 +7°C° 0 mm 4 m/s 760 mmHg 90%
15:00 +8°C° 0 mm 5 m/s 760 mmHg 89%
16:00 +8°C° 0 mm 6 m/s 760 mmHg 87%
17:00 +7°C° 0 mm 5 m/s 760 mmHg 88%
18:00 +7°C° 0 mm 5 m/s 760 mmHg 88%
19:00 +6°C° 0 mm 5 m/s 760 mmHg 89%
20:00 +5°C° 0 mm 5 m/s 761 mmHg 89%
21:00 +5°C° 0 mm 5 m/s 761 mmHg 89%
22:00 +4°C° 0 mm 6 m/s 761 mmHg 89%
23:00 +4°C° 0 mm 6 m/s 761 mmHg 86%

Amanhã, 11 Abril, Domingo

Tempo Temperatura Precipitação Vento Pressão Humidade
00:00 +3°C° 0 mm 6 m/s 761 mmHg 84%
01:00 +3°C° 0 mm 6 m/s 761 mmHg 81%
02:00 +3°C° 0 mm 6 m/s 762 mmHg 77%
03:00 +3°C° 0 mm 6 m/s 762 mmHg 73%
04:00 +2°C° 0 mm 6 m/s 762 mmHg 69%
05:00 +3°C° 0 mm 6 m/s 762 mmHg 70%
06:00 +3°C° 0 mm 6 m/s 762 mmHg 71%
07:00 +3°C° 0 mm 6 m/s 763 mmHg 72%
08:00 +4°C° 0 mm 6 m/s 763 mmHg 70%
09:00 +7°C° 0 mm 6 m/s 763 mmHg 68%
10:00 +8°C° 0 mm 6 m/s 763 mmHg 67%
11:00 +9°C° 0 mm 7 m/s 763 mmHg 64%
12:00 +11°C° 0 mm 7 m/s 763 mmHg 61%
13:00 +12°C° 0 mm 7 m/s 763 mmHg 58%
14:00 +13°C° 0 mm 6 m/s 763 mmHg 58%
15:00 +14°C° 0 mm 6 m/s 763 mmHg 58%
16:00 +14°C° 0 mm 5 m/s 763 mmHg 57%
17:00 +13°C° 0 mm 4 m/s 763 mmHg 63%
18:00 +12°C° 0 mm 3 m/s 763 mmHg 68%
19:00 +10°C° 0 mm 2 m/s 764 mmHg 74%
20:00 +10°C° 0 mm 2 m/s 764 mmHg 77%
21:00 +9°C° 0 mm 2 m/s 764 mmHg 81%
22:00 +8°C° 0 mm 2 m/s 764 mmHg 84%
23:00 +8°C° 0 mm 2 m/s 764 mmHg 85%

Depois de amanhã, 12 Abril, Segunda-feira

Tempo Temperatura Precipitação Vento Pressão Humidade
00:00 +7°C° 0 mm 2 m/s 764 mmHg 85%
01:00 +7°C° 0 mm 2 m/s 764 mmHg 86%
02:00 +7°C° 0 mm 2 m/s 765 mmHg 86%
03:00 +6°C° 0 mm 2 m/s 765 mmHg 85%
04:00 +7°C° 0 mm 1 m/s 765 mmHg 85%
05:00 +7°C° 0 mm 1 m/s 765 mmHg 83%
06:00 +8°C° 0 mm 1 m/s 765 mmHg 82%
07:00 +8°C° 0 mm 1 m/s 765 mmHg 80%
08:00 +10°C° 0 mm 1 m/s 765 mmHg 74%
09:00 +12°C° 0 mm 1 m/s 765 mmHg 67%
10:00 +13°C° 0 mm 1 m/s 765 mmHg 60%
11:00 +15°C° 0 mm 1 m/s 765 mmHg 56%
12:00 +16°C° 0 mm 1 m/s 765 mmHg 52%
13:00 +16°C° 0 mm 0 m/s 765 mmHg 48%
14:00 +19°C° 0 mm 1 m/s 765 mmHg 47%
15:00 +19°C° 0 mm 1 m/s 765 mmHg 46%
16:00 +19°C° 0 mm 1 m/s 764 mmHg 44%
17:00 +18°C° 0 mm 1 m/s 764 mmHg 49%
18:00 +16°C° 0 mm 1 m/s 764 mmHg 54%
19:00 +15°C° 0 mm 1 m/s 764 mmHg 59%
20:00 +14°C° 0 mm 1 m/s 764 mmHg 61%
21:00 +13°C° 0 mm 1 m/s 764 mmHg 63%
22:00 +12°C° 0 mm 1 m/s 765 mmHg 65%
23:00 +12°C° 0 mm 1 m/s 765 mmHg 66%

13 Abril, Terça-feira

Tempo Temperatura Precipitação Vento Pressão Humidade
00:00 +10°C° 0 mm 0 m/s 765 mmHg 67%
01:00 +10°C° 0 mm 0 m/s 765 mmHg 68%
02:00 +9°C° 0 mm 0 m/s 765 mmHg 70%
03:00 +9°C° 0 mm 0 m/s 765 mmHg 71%
04:00 +8°C° 0 mm 0 m/s 765 mmHg 72%
05:00 +10°C° 0 mm 1 m/s 765 mmHg 71%
06:00 +10°C° 0 mm 1 m/s 765 mmHg 70%
07:00 +10°C° 0 mm 1 m/s 765 mmHg 69%
08:00 +12°C° 0 mm 1 m/s 765 mmHg 60%
09:00 +13°C° 0 mm 2 m/s 765 mmHg 51%
10:00 +15°C° 0 mm 2 m/s 765 mmHg 42%
11:00 +16°C° 0 mm 2 m/s 765 mmHg 37%
12:00 +17°C° 0 mm 3 m/s 765 mmHg 33%
13:00 +18°C° 0 mm 3 m/s 764 mmHg 28%
14:00 +18°C° 0 mm 3 m/s 764 mmHg 27%
15:00 +19°C° 0 mm 3 m/s 764 mmHg 26%
16:00 +19°C° 0 mm 3 m/s 764 mmHg 26%
17:00 +18°C° 0 mm 2 m/s 764 mmHg 31%
18:00 +16°C° 0 mm 2 m/s 763 mmHg 35%
19:00 +15°C° 0 mm 2 m/s 763 mmHg 40%
20:00 +14°C° 0 mm 2 m/s 763 mmHg 42%
21:00 +13°C° 0 mm 2 m/s 763 mmHg 45%
22:00 +12°C° 0 mm 2 m/s 763 mmHg 47%
23:00 +10°C° 0 mm 2 m/s 763 mmHg 49%

14 Abril, Quarta-feira

Tempo Temperatura Precipitação Vento Pressão Humidade
00:00 +11°C° 0 mm 1 m/s 763 mmHg 51%
01:00 +10°C° 0 mm 1 m/s 763 mmHg 53%
02:00 +9°C° 0 mm 1 m/s 763 mmHg 56%
03:00 +9°C° 0 mm 1 m/s 763 mmHg 58%
04:00 +8°C° 0 mm 1 m/s 763 mmHg 61%
05:00 +9°C° 0 mm 1 m/s 763 mmHg 61%
06:00 +9°C° 0 mm 1 m/s 763 mmHg 62%
07:00 +9°C° 0 mm 1 m/s 763 mmHg 62%
08:00 +11°C° 0 mm 1 m/s 762 mmHg 55%
09:00 +13°C° 0 mm 1 m/s 762 mmHg 49%
10:00 +15°C° 0 mm 1 m/s 762 mmHg 42%
11:00 +16°C° 0 mm 1 m/s 761 mmHg 38%
12:00 +18°C° 0 mm 1 m/s 761 mmHg 34%
13:00 +19°C° 0 mm 1 m/s 761 mmHg 29%
14:00 +20°C° 0 mm 1 m/s 760 mmHg 28%
15:00 +20°C° 0 mm 1 m/s 760 mmHg 27%
16:00 +18°C° 0 mm 0 m/s 759 mmHg 26%
17:00 +17°C° 0 mm 0 m/s 759 mmHg 30%
18:00 +16°C° 0 mm 0 m/s 759 mmHg 34%
19:00 +15°C° 0 mm 0 m/s 759 mmHg 38%
20:00 +14°C° 0 mm 0 m/s 759 mmHg 40%
21:00 +13°C° 0 mm 0 m/s 758 mmHg 42%
22:00 +12°C° 0 mm 0 m/s 758 mmHg 44%
23:00 +11°C° 0 mm 0 m/s 758 mmHg 46%

15 Abril, Quinta-feira

Tempo Temperatura Precipitação Vento Pressão Humidade
00:00 +11°C° 0 mm 0 m/s 758 mmHg 48%
01:00 +10°C° 0 mm 0 m/s 758 mmHg 49%
02:00 +9°C° 0 mm 0 m/s 758 mmHg 51%
03:00 +9°C° 0 mm 0 m/s 758 mmHg 52%
04:00 +8°C° 0 mm 0 m/s 758 mmHg 54%
05:00 +9°C° 0 mm 0 m/s 757 mmHg 54%
06:00 +9°C° 0 mm 0 m/s 757 mmHg 54%
07:00 +9°C° 0 mm 0 m/s 757 mmHg 54%
08:00 +11°C° 0 mm 0 m/s 757 mmHg 49%
09:00 +14°C° 0 mm 1 m/s 757 mmHg 44%
10:00 +16°C° 0 mm 1 m/s 757 mmHg 39%
11:00 +18°C° 0 mm 1 m/s 756 mmHg 35%
12:00 +19°C° 0 mm 1 m/s 756 mmHg 32%
13:00 +18°C° 0 mm 0 m/s 755 mmHg 28%
14:00 +19°C° 0 mm 0 m/s 755 mmHg 27%
15:00 +21°C° 0 mm 1 m/s 755 mmHg 26%
16:00 +21°C° 0 mm 1 m/s 754 mmHg 25%
17:00 +20°C° 0 mm 1 m/s 754 mmHg 30%
18:00 +19°C° 0 mm 1 m/s 753 mmHg 34%
19:00 +18°C° 0 mm 1 m/s 753 mmHg 39%
20:00 +16°C° 0 mm 1 m/s 753 mmHg 42%
21:00 +15°C° 0 mm 1 m/s 752 mmHg 45%
22:00 +14°C° 0 mm 1 m/s 752 mmHg 48%
23:00 +13°C° 0 mm 1 m/s 752 mmHg 50%
Mostrar mais